Wetbulb
58.44 59.64 59.79 60.06 60.02 60.08 59.86 59.56 59.43 59.62 59.74 59.86 60.03 60.63 60.69 60.93 60.59 57.09 52.21 55.54 57.06 61.85 59.52 50.81 50.30 49.16 49.45 47.35 47.16 43.56 38.62 35.32 36.47 38.33 40.11 42.35 42.15 42.94 43.98 44.96 44.66 46.05 48.73 50.67 58.02
58.73 59.24 59.45 59.50 59.44 59.47 59.39 59.02 58.86 58.91 59.10 59.18 59.59 60.26 60.48 60.49 57.04 53.10 58.02 62.22 62.35 61.16 51.55 48.89 47.16 47.47 45.67 45.90 45.75 40.89 36.28 38.23 40.40 40.29 40.92 43.05 41.95 43.99 42.06 41.96 44.50 45.08 50.94 53.96 58.49
58.84 58.69 59.07 59.04 58.97 58.66 58.47 58.36 58.33 58.45 58.79 59.09 59.55 59.94 60.00 58.86 51.58 51.06 60.85 61.91 61.10 58.65 52.56 50.43 47.86 47.20 43.04 43.97 42.62 40.57 38.05 40.78 42.05 42.85 43.73 43.52 40.99 42.94 41.54 39.07 43.23 44.93 50.12 54.66 56.88
58.82 58.78 58.52 58.32 58.36 58.30 58.16 57.97 58.28 58.23 58.44 59.03 59.70 59.95 59.58 56.38 39.27 52.27 60.14 60.52 60.81 53.90 51.31 48.46 45.49 43.23 41.58 41.71 44.16 39.94 41.66 41.98 44.59 44.57 42.93 42.33 42.58 40.69 41.75 42.69 45.02 45.83 53.19 55.47 57.60
58.50 58.37 58.02 57.67 57.62 57.87 57.91 57.92 58.19 58.27 58.54 58.95 59.71 59.84 55.94 48.46 49.47 53.44 58.71 57.79 52.49 51.80 48.81 46.73 44.26 42.30 39.98 41.50 41.92 39.27 40.10 43.50 44.03 43.12 41.93 43.20 40.40 41.03 41.71 44.15 43.85 46.05 53.45 54.95 57.62
58.21 57.92 57.51 57.22 57.35 57.38 57.15 57.25 57.72 57.70 58.02 58.61 59.69 59.59 51.10 42.48 54.35 53.21 52.20 51.68 51.50 49.12 47.42 46.47 44.73 44.78 42.65 41.49 39.68 41.78 41.95 42.10 42.72 41.92 41.88 40.45 39.10 40.35 42.64 43.41 42.88 46.41 51.36 53.05 54.75
58.17 57.76 57.51 57.19 56.62 56.55 57.00 57.56 57.99 58.19 58.37 58.52 59.38 56.13 47.81 45.92 53.26 51.20 52.12 50.65 50.33 49.26 46.59 47.64 46.52 42.98 43.18 41.25 43.62 41.71 37.48 39.12 39.99 41.18 40.29 40.87 36.55 39.66 41.54 42.53 42.19 43.06 45.72 50.63 52.92
57.74 57.21 57.11 57.06 56.80 56.96 57.22 57.54 58.00 58.32 58.49 58.48 59.44 51.76 42.73 52.92 52.70 51.04 51.07 49.33 50.16 50.44 48.81 48.19 48.24 46.70 43.86 42.82 41.69 37.66 36.51 32.31 37.68 40.84 40.68 37.72 33.52 38.46 41.90 39.66 41.75 41.01 40.29 42.78 47.78
57.45 56.82 57.06 57.01 56.85 56.99 57.32 57.76 57.71 58.09 58.05 58.48 51.53 46.58 41.90 55.38 49.57 50.42 49.72 48.67 49.15 48.17 47.89 50.69 47.76 42.71 41.86 37.66 34.14 34.72 29.53 31.36 35.70 41.41 39.75 37.04 34.91 39.41 41.00 41.21 39.45 40.37 40.91 41.37 42.13
57.40 57.07 57.12 57.20 57.17 57.18 57.66 58.22 57.87 56.36 55.88 55.02 50.46 40.40 45.91 45.90 50.85 50.13 49.28 49.93 46.61 45.78 45.42 44.75 40.47 37.34 35.58 33.89 28.16 31.23 31.05 32.54 31.80 37.99 37.50 35.51 37.06 40.01 41.92 40.20 40.98 40.71 40.94 40.91 41.66
56.47 57.56 57.76 57.44 57.46 57.86 55.40 47.96 42.02 41.21 45.37 41.08 42.24 42.37 46.68 49.60 51.42 48.40 49.21 47.70 46.74 43.12 37.57 39.92 35.60 33.25 35.91 36.32 34.74 35.27 33.34 31.72 34.17 38.37 36.59 36.37 36.02 38.80 40.90 39.29 39.35 39.63 40.11 40.42 42.13
54.66 55.71 57.21 58.35 58.00 57.84 53.67 46.09 42.40 44.45 39.40 44.92 44.57 46.59 48.93 50.14 45.55 46.48 48.86 43.29 41.64 36.83 38.55 36.31 33.09 37.68 38.13 37.79 36.25 34.24 32.29 31.72 35.16 38.13 35.99 34.82 36.54 38.65 39.69 39.61 39.80 40.33 39.73 40.44 41.31
53.13 53.48 54.91 57.98 58.05 55.29 52.66 51.70 51.90 49.53 39.47 42.64 44.29 44.22 45.94 48.68 43.92 44.78 46.60 43.40 39.22 37.14 36.72 33.57 36.55 39.64 39.64 37.02 36.47 33.97 32.65 31.98 33.29 35.22 34.05 33.14 32.23 34.02 38.02 38.91 40.38 41.10 41.26 41.18 41.57
51.56 52.04 53.25 55.35 54.91 54.57 52.08 53.25 53.36 50.89 36.64 39.02 41.00 43.50 46.03 46.66 42.16 47.18 46.37 44.29 39.86 37.42 37.85 36.56 39.28 38.19 36.58 36.30 36.85 32.40 37.00 36.13 35.26 31.77 27.78 32.19 25.23 30.72 36.39 37.72 38.03 39.45 38.37 39.61 40.67
49.95 50.65 51.94 55.28 53.78 52.55 54.61 55.99 53.63 48.77 22.63 39.42 40.11 47.33 44.96 41.57 42.43 42.88 45.58 43.56 39.21 38.93 38.72 35.96 36.97 36.81 35.44 36.79 37.91 35.45 37.42 35.65 34.15 31.43 29.12 28.84 26.83 30.41 32.74 35.50 38.06 38.52 38.98 40.61 40.23
48.32 49.12 50.65 53.09 54.08 53.65 56.23 55.36 51.48 36.27 25.03 37.23 40.64 39.71 39.18 39.92 40.68 42.20 41.84 43.79 42.31 38.83 37.55 36.48 38.79 38.04 37.65 38.29 37.52 39.58 36.66 34.55 32.94 29.85 23.66 29.30 28.34 27.32 31.56 35.15 35.75 38.21 39.56 41.60 42.63
47.91 47.40 48.47 50.32 50.78 53.76 55.95 51.10 36.80 26.64 38.58 35.79 37.18 38.34 37.11 36.54 37.89 38.44 38.03 36.66 35.13 31.51 30.98 34.83 34.97 37.46 39.16 36.70 38.24 35.42 31.84 23.95 22.50 21.96 22.36 27.36 26.40 30.11 35.77 37.42 37.61 39.09 39.41 42.11 41.77
48.09 47.80 48.78 49.42 51.00 52.15 52.69 41.98 30.99 33.55 36.10 39.61 39.02 37.86 34.89 37.58 36.44 37.05 35.07 33.64 35.98 33.10 30.53 29.90 28.33 36.22 38.90 37.25 35.49 33.72 31.97 24.70 19.64 19.89 22.70 27.72 25.89 33.27 37.44 39.51 38.99 40.19 39.09 40.57 41.68
47.76 44.28 44.22 49.61 50.35 52.24 46.76 34.62 34.66 35.86 39.89 38.08 38.32 34.15 33.98 36.30 36.46 35.68 33.86 32.88 35.87 35.90 31.71 29.38 29.57 35.97 36.95 37.56 38.48 34.10 30.46 34.03 27.12 15.11 20.79 25.78 29.84 36.13 37.78 37.21 37.84 39.62 41.16 41.30 41.21
40.81 40.71 41.43 50.70 50.92 49.69 38.32 34.60 37.69 41.59 41.36 39.68 34.59 36.38 31.45 33.21 33.19 33.48 33.20 36.81 36.90 38.19 37.11 34.51 28.86 33.52 35.05 36.93 36.26 34.83 37.37 29.79 27.09 17.40 15.77 22.82 24.75 29.50 34.98 37.66 38.29 40.27 40.63 41.10 41.23
38.79 33.08 41.93 49.31 50.74 44.27 32.48 34.69 38.87 42.34 43.18 40.02 36.97 35.41 34.71 33.61 33.39 31.81 33.45 35.33 38.24 37.43 38.69 36.73 33.76 30.09 33.66 33.08 32.97 33.23 31.98 31.88 32.17 27.36 21.50 18.25 25.64 33.38 34.70 36.84 38.81 39.35 40.14 40.19 39.98
36.02 27.32 42.38 47.77 40.31 40.94 35.67 39.10 41.56 41.29 44.23 43.28 42.32 39.87 35.65 35.74 33.38 33.10 33.45 34.45 38.77 38.42 34.25 36.38 33.42 26.38 30.27 32.87 34.20 32.31 32.72 32.46 26.93 24.52 25.17 25.16 27.57 36.60 38.97 38.82 39.71 40.37 41.42 41.34 41.99
31.93 32.21 43.00 45.89 34.04 35.54 38.96 39.23 40.31 39.12 41.46 41.73 40.63 41.97 41.67 38.62 34.19 35.52 36.51 40.14 40.33 39.14 37.07 37.87 30.73 22.48 28.03 31.43 32.92 31.24 32.83 33.64 32.19 28.66 26.60 22.00 26.85 36.16 36.81 37.28 37.43 38.21 38.09 41.31 41.34
31.53 27.06 33.94 39.48 37.92 34.41 35.17 36.07 36.15 40.86 39.93 40.62 40.52 41.43 40.50 39.37 41.13 38.14 38.10 39.74 41.19 41.49 42.60 41.33 33.55 28.74 26.46 29.43 32.13 29.69 31.90 33.53 32.34 25.25 28.80 28.88 31.01 33.88 35.83 36.64 38.87 39.33 38.58 40.68 41.75
31.52 27.68 31.27 26.67 32.00 33.49 34.46 35.78 34.89 33.91 39.07 39.94 36.87 37.14 38.07 35.96 38.28 37.35 39.00 39.36 40.56 42.33 41.16 39.79 30.39 32.82 33.16 35.49 35.61 33.66 33.35 34.06 32.65 30.84 27.75 30.41 30.99 33.85 36.83 38.82 41.01 38.79 39.88 39.59 41.05
29.09 27.64 29.75 28.89 30.62 32.79 32.13 31.36 33.12 34.82 36.04 34.83 34.41 36.79 38.28 35.19 36.91 36.20 38.75 38.14 37.88 39.80 39.31 38.51 30.77 34.32 29.58 34.74 35.65 34.29 35.41 35.00 34.47 33.97 33.73 33.27 33.04 38.59 39.01 38.57 38.32 39.92 39.80 39.50 39.26
38.17 34.77 30.48 28.82 27.82 30.00 29.50 30.75 31.56 35.16 35.79 37.52 36.85 35.14 35.60 36.60 37.21 37.88 38.85 39.65 39.53 37.40 37.38 36.43 32.87 31.79 25.20 31.01 32.20 29.14 32.91 34.33 34.48 35.45 35.23 31.40 37.00 37.62 37.25 37.80 38.13 38.96 38.83 38.73 38.83
MSLP
1013.91 1014.21 1014.43 1014.33 1014.43 1014.36 1014.22 1014.25 1014.46 1014.49 1014.33 1014.29 1014.18 1014.15 1014.04 1014.02 1014.09 1014.30 1013.61 1013.13 1012.99 1013.08 1013.21 1013.19 1013.16 1013.29 1013.45 1013.83 1013.89 1014.56 1015.72 1016.29 1015.73 1015.47 1015.10 1014.87 1015.05 1015.31 1015.39 1015.73 1016.11 1016.42 1016.72 1016.57 1017.04
1013.71 1013.98 1014.14 1014.24 1014.32 1014.19 1014.21 1014.51 1014.74 1014.63 1014.31 1014.36 1014.15 1014.04 1013.98 1013.99 1013.90 1013.74 1013.03 1013.03 1012.94 1013.13 1013.14 1013.24 1013.43 1013.59 1013.93 1014.06 1014.37 1014.80 1015.84 1015.73 1015.17 1014.97 1014.89 1014.89 1015.01 1015.23 1015.64 1015.96 1016.41 1016.74 1016.85 1016.89 1017.35
1013.49 1013.81 1014.16 1014.20 1014.25 1014.16 1014.28 1014.40 1014.40 1014.19 1013.99 1014.21 1014.04 1013.85 1013.70 1013.68 1013.89 1013.33 1012.93 1012.95 1013.15 1013.15 1013.04 1013.07 1013.35 1013.58 1013.89 1014.16 1014.50 1014.89 1015.27 1015.28 1015.12 1015.02 1014.70 1014.90 1015.23 1015.15 1015.67 1016.33 1016.19 1016.59 1017.12 1017.55 1017.84
1013.30 1013.82 1014.10 1014.36 1014.39 1014.33 1014.56 1014.48 1014.40 1014.19 1013.96 1014.15 1013.91 1013.82 1013.79 1013.63 1013.61 1013.07 1012.93 1013.13 1013.15 1013.14 1013.23 1013.07 1013.40 1013.82 1014.11 1014.41 1014.36 1014.78 1014.85 1014.97 1015.07 1015.20 1015.04 1015.11 1015.20 1015.47 1015.60 1015.41 1015.33 1015.85 1016.55 1017.42 1017.99
1013.22 1013.80 1014.09 1014.12 1014.15 1014.39 1014.33 1014.25 1014.30 1013.82 1014.11 1014.10 1013.80 1013.61 1013.46 1013.44 1013.03 1012.87 1012.99 1013.06 1013.20 1013.23 1013.07 1013.13 1013.38 1013.77 1014.15 1014.41 1014.51 1014.75 1014.96 1014.98 1015.14 1015.25 1015.32 1015.34 1015.35 1015.51 1015.46 1015.20 1015.54 1016.06 1016.94 1017.33 1017.62
1013.09 1013.64 1013.78 1014.05 1014.05 1014.03 1013.92 1014.10 1014.21 1013.83 1013.79 1013.70 1013.60 1013.50 1013.22 1013.34 1012.95 1012.98 1012.86 1013.19 1013.28 1013.16 1013.14 1013.17 1013.31 1013.48 1014.08 1014.58 1014.76 1014.85 1015.12 1015.09 1015.42 1015.48 1015.45 1015.65 1015.82 1015.69 1015.08 1015.06 1015.87 1016.42 1016.86 1017.30 1017.46
1013.26 1013.65 1013.77 1013.79 1013.62 1013.73 1013.86 1013.93 1013.65 1013.44 1013.71 1013.52 1013.53 1013.23 1012.99 1013.22 1012.81 1012.84 1012.89 1013.09 1013.10 1013.00 1013.26 1013.33 1013.31 1013.60 1014.12 1014.87 1014.96 1015.23 1015.47 1015.61 1015.73 1015.84 1015.88 1015.96 1016.19 1015.77 1015.46 1015.52 1016.07 1016.69 1016.99 1017.24 1017.28
1013.10 1013.37 1013.51 1013.83 1013.73 1013.84 1014.02 1013.82 1013.57 1013.69 1013.57 1013.56 1013.60 1013.38 1012.85 1012.92 1012.96 1012.96 1013.06 1013.20 1013.03 1012.99 1013.25 1013.40 1013.40 1013.84 1014.52 1015.25 1015.50 1015.87 1016.19 1016.50 1016.02 1016.22 1016.18 1016.55 1016.35 1015.79 1015.48 1015.73 1016.10 1016.63 1017.14 1017.37 1017.10
1012.90 1013.13 1013.28 1013.70 1013.49 1013.63 1013.41 1013.28 1013.16 1013.05 1013.45 1013.48 1013.31 1012.99 1013.24 1013.12 1013.21 1013.09 1012.99 1013.27 1013.08 1013.50 1013.51 1013.51 1013.69 1014.90 1015.48 1016.08 1016.86 1017.01 1016.88 1016.80 1016.48 1016.42 1016.57 1016.93 1016.67 1015.88 1015.81 1015.95 1016.39 1016.60 1016.63 1016.74 1016.60
1012.76 1013.04 1013.22 1013.28 1013.40 1013.67 1013.50 1013.38 1013.25 1013.22 1013.48 1013.14 1012.90 1013.38 1013.51 1013.16 1013.06 1013.01 1013.05 1013.19 1013.73 1013.96 1014.02 1014.25 1015.19 1016.04 1016.77 1016.86 1017.18 1017.21 1017.01 1016.58 1016.70 1016.65 1016.82 1017.24 1016.90 1016.19 1015.93 1016.24 1016.18 1016.09 1016.18 1016.12 1015.86
1012.62 1012.84 1013.00 1013.32 1013.29 1013.48 1013.55 1013.50 1013.95 1013.75 1013.40 1013.15 1012.52 1012.93 1013.00 1013.19 1013.23 1013.24 1013.48 1013.59 1013.92 1014.17 1014.80 1015.36 1016.33 1016.42 1016.46 1016.60 1016.53 1016.47 1016.57 1016.62 1016.69 1016.75 1017.15 1017.11 1017.23 1016.68 1015.80 1015.96 1015.75 1015.60 1015.36 1015.40 1014.94
1012.94 1012.95 1012.75 1012.92 1013.22 1013.48 1013.43 1013.29 1012.86 1012.67 1012.99 1012.83 1012.60 1012.76 1013.18 1013.02 1013.55 1013.61 1013.50 1013.69 1014.20 1014.95 1015.43 1016.23 1016.36 1015.94 1016.53 1016.59 1016.64 1016.47 1016.77 1016.88 1017.09 1017.03 1017.58 1017.46 1017.09 1016.53 1015.79 1014.97 1014.79 1014.56 1014.49 1014.25 1014.20
1013.00 1012.96 1012.92 1012.92 1013.03 1013.33 1013.25 1012.88 1012.67 1012.66 1012.98 1013.19 1012.85 1012.92 1013.18 1012.98 1013.38 1013.60 1013.55 1014.02 1014.36 1015.30 1015.87 1016.04 1015.87 1015.89 1016.42 1016.49 1016.71 1016.77 1016.76 1017.21 1017.47 1017.68 1017.98 1018.31 1017.49 1016.52 1015.07 1014.54 1013.90 1013.64 1013.28 1013.30 1013.33
1013.31 1013.26 1012.81 1012.51 1013.25 1012.89 1013.27 1012.99 1012.66 1012.68 1013.18 1013.30 1013.21 1012.88 1013.03 1012.74 1013.77 1013.79 1013.64 1014.07 1014.69 1015.32 1016.12 1016.10 1015.71 1016.02 1016.33 1016.43 1016.56 1017.04 1016.78 1017.43 1017.93 1018.68 1019.20 1019.18 1018.66 1016.96 1015.62 1014.65 1013.80 1012.84 1012.89 1012.68 1012.84
1013.70 1013.45 1013.07 1012.52 1013.02 1013.10 1013.61 1013.00 1012.45 1012.56 1013.29 1012.62 1013.00 1013.02 1012.88 1013.18 1013.91 1014.28 1014.23 1014.19 1014.72 1015.13 1015.77 1016.01 1015.98 1016.10 1016.45 1016.41 1016.55 1017.17 1017.34 1017.99 1018.67 1019.52 1020.08 1020.16 1019.94 1016.78 1016.01 1014.92 1013.41 1012.62 1012.50 1012.28 1012.36
1013.77 1013.67 1013.17 1012.90 1013.15 1013.61 1013.27 1012.92 1013.05 1013.94 1013.32 1013.11 1013.10 1013.13 1013.47 1013.80 1014.40 1014.55 1014.54 1014.34 1014.64 1015.40 1015.75 1016.19 1016.29 1016.12 1016.31 1016.70 1016.90 1017.51 1018.17 1019.16 1020.15 1021.01 1021.08 1020.07 1019.62 1017.60 1015.90 1014.23 1013.21 1012.66 1012.43 1012.48 1012.47
1013.44 1013.60 1013.37 1013.58 1013.64 1013.31 1013.09 1013.63 1014.24 1013.72 1012.73 1013.23 1013.21 1013.42 1013.76 1014.39 1014.83 1014.79 1015.01 1015.14 1015.15 1016.02 1016.80 1016.83 1016.77 1016.56 1016.51 1017.11 1017.52 1017.95 1019.03 1020.62 1021.75 1022.13 1021.54 1020.48 1019.93 1017.41 1015.06 1013.62 1013.28 1013.01 1012.91 1013.00 1013.08
1013.55 1013.77 1013.80 1013.51 1013.70 1013.52 1013.50 1014.15 1013.98 1012.76 1012.73 1012.49 1012.70 1013.43 1013.92 1014.25 1015.06 1015.26 1015.39 1015.63 1015.36 1015.47 1016.74 1017.05 1017.36 1016.88 1016.58 1016.72 1017.32 1018.01 1018.77 1020.19 1021.38 1022.35 1021.93 1020.69 1018.80 1015.62 1014.31 1013.66 1013.45 1013.35 1013.47 1013.60 1013.79
1013.54 1013.97 1013.85 1013.54 1013.52 1013.68 1013.87 1013.53 1012.81 1012.40 1011.87 1012.18 1012.89 1013.52 1014.13 1014.37 1014.62 1015.34 1015.52 1015.43 1015.02 1015.02 1015.46 1016.55 1016.79 1016.65 1016.78 1016.69 1016.77 1018.26 1018.89 1019.32 1020.92 1022.96 1022.32 1020.09 1018.08 1015.60 1013.89 1013.50 1013.86 1014.31 1014.30 1014.44 1014.54
1014.17 1014.15 1013.81 1013.37 1013.88 1013.90 1014.60 1013.45 1013.00 1012.19 1011.52 1011.60 1012.08 1012.83 1013.77 1014.25 1014.81 1015.24 1015.53 1014.61 1014.53 1014.42 1014.47 1015.48 1016.74 1017.16 1017.17 1017.05 1017.24 1017.26 1017.94 1019.41 1020.81 1022.17 1022.08 1019.83 1018.25 1016.17 1014.76 1014.02 1014.43 1014.83 1014.86 1014.93 1014.83
1014.50 1014.44 1013.88 1013.64 1013.95 1013.58 1013.68 1012.95 1012.63 1012.10 1011.61 1011.45 1011.58 1012.35 1012.92 1013.71 1014.21 1014.81 1014.68 1014.31 1013.96 1014.20 1014.58 1015.28 1016.03 1017.87 1017.76 1017.49 1017.18 1017.84 1017.98 1018.65 1019.68 1020.59 1020.81 1019.84 1017.56 1015.26 1014.76 1014.68 1015.14 1015.27 1015.06 1015.31 1015.30
1014.96 1014.83 1014.01 1013.83 1013.63 1013.06 1013.19 1012.61 1012.65 1012.04 1011.41 1011.48 1011.62 1011.82 1012.40 1013.17 1013.74 1014.33 1014.20 1013.74 1013.38 1013.60 1014.66 1015.01 1016.16 1017.71 1017.75 1017.59 1017.40 1017.36 1017.53 1017.91 1019.20 1020.43 1020.20 1019.11 1016.69 1015.17 1015.03 1015.28 1015.14 1015.34 1015.54 1015.36 1015.11
1014.76 1014.68 1014.20 1014.04 1013.57 1013.32 1012.91 1012.74 1012.45 1012.00 1011.90 1011.97 1012.04 1011.85 1012.29 1012.85 1013.58 1013.81 1013.76 1013.57 1013.63 1013.87 1014.03 1014.93 1016.34 1017.79 1018.30 1018.32 1017.97 1017.76 1017.81 1017.97 1018.61 1019.22 1018.87 1019.11 1016.86 1016.05 1015.28 1015.63 1015.56 1015.51 1015.57 1015.49 1015.39
1015.07 1015.31 1014.88 1014.52 1013.93 1013.32 1012.94 1012.51 1012.54 1012.04 1011.72 1011.50 1011.62 1012.04 1012.59 1013.21 1013.54 1013.88 1014.33 1014.17 1014.12 1014.18 1014.40 1014.71 1016.24 1017.09 1017.48 1017.58 1017.61 1018.17 1018.13 1018.31 1018.49 1019.20 1018.29 1017.32 1017.02 1016.28 1015.77 1016.01 1015.59 1015.63 1015.54 1015.73 1015.72
1015.18 1015.10 1014.61 1014.82 1014.27 1013.75 1013.25 1012.78 1012.61 1012.24 1011.80 1011.95 1012.10 1012.13 1012.39 1013.36 1013.93 1014.34 1014.65 1014.99 1014.88 1014.89 1015.29 1015.92 1016.98 1017.63 1017.94 1018.13 1018.25 1018.55 1018.62 1018.55 1018.52 1018.24 1018.32 1017.23 1017.07 1016.59 1016.66 1016.24 1015.46 1016.08 1016.10 1016.19 1016.46
1014.89 1015.16 1014.97 1014.80 1014.32 1014.26 1013.88 1013.20 1012.59 1012.30 1011.98 1012.26 1012.22 1012.57 1012.75 1013.27 1013.53 1014.32 1014.56 1015.07 1015.55 1016.17 1016.47 1017.13 1017.75 1018.31 1018.64 1018.79 1018.99 1019.06 1018.59 1018.60 1018.55 1018.26 1017.83 1017.58 1016.11 1016.33 1016.39 1016.59 1016.72 1016.53 1016.35 1016.79 1017.00
1014.54 1014.88 1015.19 1015.04 1014.90 1014.62 1013.61 1013.09 1012.55 1012.60 1012.45 1012.10 1012.69 1013.19 1013.61 1014.08 1014.27 1014.93 1015.06 1015.25 1015.53 1016.07 1016.99 1017.48 1018.29 1019.18 1019.76 1019.39 1019.71 1019.54 1017.72 1018.22 1017.80 1017.49 1017.22 1017.11 1015.18 1016.09 1016.48 1016.80 1016.96 1017.14 1017.52 1017.76 1017.92
Wind_Speed
9 8 7 6 6 6 5 3 3 3 3 3 2 1 3 4 2 3 4 4 3 1 1 1 1 1 3 1 2 4 5 1 1 5 4 3 4 1 2 5 2 2 7 5 13
9 7 7 6 5 4 5 4 3 3 1 1 1 1 3 1 2 3 2 2 2 2 4 5 3 3 2 1 2 6 5 7 1 4 5 4 3 7 4 3 1 2 4 5 11
9 8 7 6 5 3 3 3 2 1 2 2 4 3 4 3 2 4 3 2 3 2 3 2 3 3 3 2 2 3 6 5 1 1 4 6 3 4 7 4 7 9 7 7 6
10 9 7 7 6 4 3 2 3 1 3 4 4 5 2 2 5 1 3 3 3 2 3 4 4 4 4 4 2 4 3 3 3 0 2 5 3 3 7 7 5 10 12 11 12
9 8 8 6 4 4 2 0 3 3 4 6 6 6 3 2 2 2 3 3 2 2 5 5 5 4 5 4 4 3 2 3 3 2 3 2 2 3 6 7 1 7 9 14 15
9 7 5 5 4 3 1 3 3 4 6 8 7 6 3 4 2 4 3 3 3 2 3 3 6 5 5 3 3 3 3 4 2 2 0 1 1 1 6 5 6 9 13 11 13
11 8 6 5 3 2 3 4 6 6 7 9 8 2 3 3 1 2 4 2 2 2 4 1 2 3 3 4 3 3 3 2 2 2 1 1 3 8 5 5 4 9 9 9 13
10 8 7 6 4 3 3 3 5 6 7 7 5 2 3 1 1 2 2 1 2 3 3 2 3 6 4 3 5 4 6 2 3 4 2 3 8 5 6 5 9 6 7 9 13
10 8 7 6 4 4 5 6 6 5 6 6 1 2 2 0 3 1 2 4 4 3 4 2 5 4 4 6 5 6 3 4 4 7 2 3 6 5 1 4 4 8 9 9 11
9 8 7 5 4 3 6 6 3 2 2 1 1 2 1 5 3 3 1 4 3 4 4 6 6 4 4 4 6 6 3 3 4 4 1 2 9 9 10 4 10 10 10 10 10
13 5 5 6 3 2 2 3 4 3 1 4 3 3 4 2 1 2 1 4 3 6 5 3 5 7 11 7 3 6 4 3 1 0 3 7 7 13 10 6 11 11 10 10 13
12 10 7 5 5 1 2 2 3 3 3 1 3 4 1 4 4 1 2 5 3 4 5 6 4 7 3 4 4 2 3 2 1 1 1 4 12 11 12 9 8 10 10 12 8
13 12 9 1 4 1 3 2 1 1 5 3 2 4 4 5 4 8 6 3 4 5 4 7 3 8 5 4 6 3 5 4 4 1 1 3 10 7 5 4 5 8 10 7 11
11 11 10 6 3 2 2 5 2 1 4 5 5 4 3 4 3 2 1 3 2 8 8 3 1 6 4 4 5 3 3 3 4 3 4 2 8 6 7 10 7 11 6 9 9
8 10 11 7 1 3 3 5 1 4 3 3 4 0 2 5 6 1 2 3 8 7 7 6 6 5 4 5 5 7 3 5 3 3 3 4 1 9 4 7 12 10 7 4 3
5 8 12 4 1 1 4 4 2 6 9 5 4 6 6 3 2 3 2 4 4 4 5 3 0 4 5 3 1 7 6 8 5 3 2 8 7 7 4 6 3 2 3 4 4
6 6 5 1 2 5 1 2 4 6 2 6 6 6 4 5 4 3 7 5 7 6 3 2 0 1 4 7 5 4 7 2 4 3 7 2 2 9 10 7 4 6 3 4 6
5 1 2 1 0 4 2 3 4 5 6 3 5 8 7 7 1 4 6 7 4 4 5 7 3 7 5 7 10 7 8 8 8 5 4 2 7 7 4 8 4 6 4 7 8
7 1 0 2 4 1 2 7 7 6 7 8 5 5 4 4 6 4 7 6 8 10 8 7 5 1 2 2 6 5 4 5 7 3 4 5 7 11 8 3 4 6 7 6 6
1 1 2 5 4 3 1 6 4 3 2 5 6 6 8 9 6 7 9 6 6 11 1 7 3 1 0 2 2 4 7 4 3 2 4 5 4 7 6 8 8 9 7 6 6
3 2 2 3 3 4 3 4 2 6 4 4 5 6 6 8 7 7 9 2 6 7 7 6 5 1 2 6 9 3 3 2 5 5 6 1 7 8 5 5 10 6 3 3 2
2 3 2 2 4 2 4 5 5 6 1 2 1 3 6 7 6 7 10 4 5 8 10 7 5 5 7 2 2 1 5 5 7 5 4 4 7 1 9 7 8 7 6 3 3
3 1 2 1 6 5 4 6 5 5 11 8 5 3 2 4 4 3 5 1 5 5 11 8 2 4 6 4 0 4 4 5 4 4 9 6 7 3 8 8 4 5 4 4 3
2 2 3 1 1 4 6 5 5 5 1 3 5 3 8 3 1 3 3 3 2 3 6 7 4 6 9 5 4 5 3 2 6 4 6 15 5 5 5 6 9 8 4 3 5
2 4 2 5 6 3 1 8 11 6 4 5 0 5 8 7 10 6 4 3 6 4 5 3 5 4 3 5 4 2 3 5 6 5 9 4 8 2 5 12 13 4 5 5 6
3 3 2 1 5 7 3 6 13 6 8 6 6 8 4 6 7 10 9 5 4 1 4 1 2 3 2 2 4 5 11 9 7 5 8 5 20 7 7 4 5 9 9 8 7
2 1 2 1 3 10 5 3 6 5 3 3 8 5 5 6 5 5 4 5 6 8 5 5 6 4 4 3 7 6 18 15 8 8 6 9 19 3 4 3 4 3 7 5 4
Wind_Direction
199 182 189 181 175 171 156 159 174 191 168 190 163 233 319 322 196 198 189 180 159 166 188 101 66 142 55 60 53 108 69 138 221 158 189 190 128 34 114 114 57 13 155 212 160
184 183 183 179 187 177 153 171 198 199 162 282 262 305 320 301 179 210 150 184 181 223 134 144 154 127 57 84 14 88 113 204 240 167 181 178 164 153 120 115 342 8 7 99 141
176 184 178 181 183 185 155 141 268 308 32 338 305 319 326 163 133 213 168 205 214 204 119 167 128 146 114 117 183 152 164 202 166 225 140 169 182 171 124 228 200 197 176 161 161
166 169 179 176 165 148 201 203 271 345 355 312 315 317 231 169 160 253 175 205 220 212 183 147 121 121 119 157 197 119 138 154 168 290 121 165 141 198 175 218 203 200 169 164 175
159 174 177 177 167 182 206 146 291 2 338 318 318 322 171 118 191 162 183 184 180 182 166 145 130 139 156 172 112 118 159 106 141 140 124 170 193 222 241 227 44 136 158 180 186
159 178 187 190 183 185 286 302 309 339 336 318 320 321 151 159 140 165 160 158 175 139 159 137 173 188 116 142 132 148 122 148 201 196 71 185 238 32 270 241 170 157 184 192 194
162 182 188 208 224 249 278 301 324 347 318 316 324 299 113 185 27 161 154 192 154 127 139 120 125 112 115 112 163 114 107 23 237 208 227 110 279 240 260 321 195 191 212 209 219
164 180 194 202 214 249 247 285 315 302 307 300 315 240 121 310 330 149 140 60 66 52 111 103 68 102 90 127 32 94 53 87 288 149 203 118 268 278 328 194 237 211 226 227 236
172 181 186 203 202 258 293 301 317 319 278 280 112 114 148 235 140 187 138 149 84 27 47 77 66 84 44 93 33 10 174 179 305 202 134 168 250 252 215 45 295 253 237 227 238
166 180 184 207 203 249 285 263 261 316 228 246 90 72 144 204 162 138 44 128 116 109 56 57 52 79 40 92 193 192 195 218 220 227 205 229 262 276 280 270 253 260 253 244 238
82 114 193 193 204 290 28 113 60 19 41 195 182 121 118 95 53 88 85 133 102 63 126 45 99 186 201 187 156 144 135 147 257 66 178 239 259 278 278 261 267 256 255 246 246
57 66 63 203 181 190 97 169 193 166 135 304 99 75 142 174 106 207 152 117 125 145 111 48 221 215 183 176 185 116 128 237 331 278 176 293 275 255 263 254 228 244 253 242 255
37 25 49 92 171 132 195 250 98 11 118 216 195 153 193 153 150 188 134 135 123 120 167 154 215 149 162 151 144 170 168 190 196 308 326 326 296 330 288 248 262 259 248 250 238
28 14 7 5 148 206 104 334 56 32 90 201 205 216 141 138 83 334 196 140 130 167 154 204 233 141 139 172 130 179 193 172 148 90 231 20 282 300 285 301 302 273 296 275 268
13 2 346 47 36 122 341 306 313 51 144 191 142 303 123 137 135 340 261 69 162 163 126 228 168 147 147 201 149 215 160 152 124 120 47 324 67 272 304 286 270 299 298 6 350
34 353 346 43 34 34 306 335 53 67 235 156 130 161 117 93 53 115 100 42 141 96 48 133 323 143 173 82 127 143 74 44 51 75 289 220 161 282 219 220 282 8 94 61 53
31 5 20 303 109 310 269 54 93 165 242 178 167 159 124 147 110 130 158 168 155 113 166 56 136 356 130 78 30 83 80 338 340 357 229 14 135 245 256 252 266 329 272 14 15
7 326 8 341 50 302 109 92 176 177 195 145 122 123 160 140 163 144 120 183 253 106 120 153 239 179 189 173 175 183 153 161 200 201 275 318 239 244 231 285 253 77 47 19 21
343 343 330 286 154 302 185 188 205 195 163 138 87 111 156 194 136 140 181 191 202 182 148 151 255 40 112 149 137 188 191 177 102 26 60 235 295 306 334 305 59 61 62 27 7
57 35 260 126 188 100 41 176 215 242 142 156 151 160 165 176 143 172 175 194 206 188 185 198 130 24 18 130 49 152 168 84 4 158 265 273 251 226 271 270 49 53 48 20 360
45 104 245 216 222 143 206 178 232 262 237 151 170 152 169 171 152 187 199 214 206 187 153 148 115 259 121 208 169 142 183 113 127 150 177 244 261 221 249 110 117 100 36 24 41
137 149 271 154 234 132 164 169 206 201 259 22 26 105 152 158 146 186 195 240 185 142 167 190 130 163 196 299 275 184 195 152 143 229 243 157 252 38 125 116 113 87 47 322 328
152 208 331 253 205 182 177 157 206 159 170 176 208 146 89 123 128 149 186 304 155 152 158 180 203 76 359 356 339 197 200 186 114 73 212 142 260 355 107 67 67 64 19 352 335
98 145 341 277 311 158 175 169 181 201 282 149 148 125 122 176 346 167 148 17 123 91 66 93 127 156 189 175 140 161 162 131 167 177 208 231 204 214 279 6 334 348 331 280 294
132 230 217 181 220 163 168 178 183 181 190 184 301 177 157 164 184 149 153 56 353 64 54 81 154 138 214 106 77 117 191 187 186 231 194 274 266 217 339 317 309 284 280 307 354
155 167 34 180 158 175 210 201 196 189 159 206 156 183 157 161 178 179 159 160 180 52 117 14 191 140 298 153 186 236 255 252 225 237 265 259 268 207 239 247 264 294 326 32 26
135 24 109 203 148 177 207 205 203 154 239 158 148 120 168 172 107 81 73 93 156 147 145 136 132 127 244 177 128 253 226 222 225 205 207 226 259 269 276 285 290 17 78 44 359